Tracking 29018 objects as of 15-Jun-2024
HD Live streaming from Space Station
objects crossing your sky now

FLOCK 4X 35

Track FLOCK 4X 35 now!
10-day predictions


NORAD ID: 51048
Int'l Code: 2022-002BS
Perigee: 427.3 km
Apogee: 430.2 km
Inclination: 97.4 °
Period: 93.0 minutes
Semi major axis: 6799 km
RCS: Unknown
Launch date: January 13, 2022
Source: United States (US)
Launch site: AIR FORCE EASTERN TEST RANGE (AFETR)
Your satellite tracking list
Your tracking list is empty




NASA's NSSDC Master Catalog

Two Line Element Set (TLE):
1 51048U 22002BS  24166.77526024  .00034252  00000-0  64802-3 0  9995
2 51048  97.3803 242.3045 0002158  19.6308 340.5025 15.48319437134656
Source of the keplerian elements: AFSPC